TET-1

Last updated on Mon Nov 21 2022 00:03:36 GMT+0000 (Coordinated Universal Time)

1 38710U 12039D 22322.14595134 .13257459 26344-5 16471-3 0 9999 2 38710 97.4692 57.2581 0008682 273.2579 86.7731 16.49472605581735

Satellite not in orbit